Location: Ciserano
(45.5833°N, 9.6000°E)
Time: 04:49:19
(UTC+00:00)

EXPRESS MD2 - Pass Details

Date: 29 November 2020
Orbit: 262 x 3990 km, 49.9° (Epoch: 24 January)

Event Time Altitude Azimuth Distance (km) Brightness Sun altitude
Exits shadow 06:02:04 - 293° (WNW) 1,970 5.4 -6.7°
Reaches altitude 10° 06:02:19 10° 293° (WNW) 1,870 5.3 -6.6°
Maximum altitude 06:06:26 88° 205° (SSW) 861 4.3 -6.0°
Drops below altitude 10° 06:15:09 10° 117° (ESE) 3,835 9.6 -4.6°
Sets 06:19:43 0° 118° (ESE) 5,486 11.8 -3.9°
